FW4092 Weather Reports


time (UTC)temp
C
wind
direction
speed
KPH
gust
KPH
rain 1hr
cm
rain 24hr
cm
rain mn
cm
humidity
%
barometer
mb
20260508111201 6 221 0.0 0.0 0.00 0.00 0.00 56 1014.1
20260508110928 6 221 0.0 1.6 0.00 0.00 0.00 55 1014.2
20260508110148 6 221 0.0 3.2 0.00 0.00 0.00 56 1014.1
20260508105641 6 221 0.0 3.2 0.00 0.00 0.00 57 1014.2
20260508105135 6 221 1.6 3.2 0.00 0.00 0.00 57 1014.1
20260508104629 6 221 1.6 3.2 0.00 0.00 0.00 57 1014.0
20260508104358 6 225 0.0 3.2 0.00 0.00 0.00 56 1014.1
20260508103619 6 220 0.0 3.2 0.00 0.00 0.00 56 1014.1
20260508103114 6 232 0.0 3.2 0.00 0.00 0.00 56 1014.1
20260508102612 6 235 0.0 1.6 0.00 0.00 0.00 56 1014.1
20260508102100 7 235 0.0 1.6 0.00 0.00 0.00 54 1014.1
20260508101559 7 234 0.0 4.8 0.00 0.00 0.00 54 1013.9
20260508101052 7 235 0.0 4.8 0.00 0.00 0.00 54 1013.9
20260508100542 7 204 0.0 3.2 0.00 0.00 0.00 54 1013.9
20260508100035 8 208 1.6 3.2 0.00 0.00 0.00 52 1013.9
20260508095529 8 117 1.6 3.2 0.00 0.00 0.00 52 1013.8
20260508095025 8 115 0.0 3.2 0.00 0.00 0.00 51 1013.9
20260508094516 9 144 0.0 3.2 0.00 0.00 0.00 50 1013.8
20260508094250 9 144 0.0 0.0 0.00 0.00 0.00 49 1013.8
20260508093509 10 144 0.0 0.0 0.00 0.00 0.00 49 1013.8
20260508092959 10 144 0.0 1.6 0.00 0.00 0.00 49 1013.8
20260508092454 10 144 0.0 1.6 0.00 0.00 0.00 48 1013.8
20260508091948 10 144 0.0 1.6 0.00 0.00 0.00 47 1013.8
20260508091441 11 140 0.0 1.6 0.00 0.00 0.00 46 1013.6
20260508091217 11 140 0.0 0.0 0.00 0.00 0.00 45 1013.8
20260508090432 11 141 0.0 0.0 0.00 0.00 0.00 45 1013.6
20260508085923 11 141 0.0 0.0 0.00 0.00 0.00 45 1013.6
20260508085421 11 141 0.0 0.0 0.00 0.00 0.00 45 1013.6
20260508084916 11 141 0.0 0.0 0.00 0.00 0.00 45 1013.6
20260508084410 11 141 0.0 0.0 0.00 0.00 0.00 45 1013.6
20260508083905 11 141 0.0 0.0 0.00 0.00 0.00 45 1013.6
20260508083355 11 141 0.0 1.6 0.00 0.00 0.00 45 1013.8
20260508082847 11 141 0.0 1.6 0.00 0.00 0.00 45 1013.8
20260508082341 11 140 0.0 1.6 0.00 0.00 0.00 45 1013.8
20260508081838 12 141 0.0 1.6 0.00 0.00 0.00 45 1013.9
20260508081332 12 140 0.0 3.2 0.00 0.00 0.00 44 1013.9
20260508080825 12 141 1.6 4.8 0.00 0.00 0.00 44 1013.8
20260508080317 12 141 1.6 4.8 0.00 0.00 0.00 44 1013.9
20260508075818 12 147 1.6 4.8 0.00 0.00 0.00 45 1013.9
20260508075307 12 150 1.6 4.8 0.00 0.00 0.00 45 1013.8
20260508074749 11 168 0.0 3.2 0.00 0.00 0.00 45 1013.8
20260508074244 12 169 1.6 6.4 0.00 0.00 0.00 45 1013.8
20260508073740 12 169 1.6 6.4 0.00 0.00 0.00 44 1013.8
20260508073234 12 147 0.0 4.8 0.00 0.00 0.00 44 1013.6
20260508072735 12 147 1.6 4.8 0.00 0.00 0.00 44 1013.8
20260508072246 12 146 1.6 4.8 0.00 0.00 0.00 43 1013.6
20260508071747 13 146 1.6 4.8 0.00 0.00 0.00 42 1013.6
20260508071245 13 148 0.0 4.8 0.00 0.00 0.00 41 1013.8
20260508070744 13 259 0.0 0.0 0.00 0.00 0.00 40 1013.6
20260508070240 13 257 0.0 0.0 0.00 0.00 0.00 39 1013.6
20260508065738 14 257 0.0 4.8 0.00 0.00 0.00 38 1013.6
20260508065234 14 257 0.0 4.8 0.00 0.00 0.00 38 1013.6
20260508065011 14 257 0.0 4.8 0.00 0.00 0.00 37 1013.5
20260508064232 15 259 1.6 4.8 0.00 0.00 0.00 37 1013.5
20260508063732 15 262 1.6 6.4 0.00 0.00 0.00 36 1013.6
20260508063229 15 279 4.8 14.5 0.00 0.00 0.00 36 1013.5
20260508062730 16 283 6.4 16.1 0.00 0.00 0.00 35 1013.5
20260508062232 16 288 8.0 24.1 0.00 0.00 0.00 34 1013.4
20260508061731 16 215 8.0 24.1 0.00 0.00 0.00 35 1013.4
20260508061231 16 219 8.0 20.9 0.00 0.00 0.00 35 1013.4
20260508060734 16 297 8.0 17.7 0.00 0.00 0.00 36 1013.4
20260508060730 16 277 6.4 16.1 0.00 0.00 0.00 36 1013.4
20260508060227 16 269 9.7 19.3 0.00 0.00 0.00 36 1013.4
20260508055226 16 306 8.0 19.3 0.00 0.00 0.00 36 1013.3
20260508054719 15 253 8.0 16.1 0.00 0.00 0.00 37 1013.3
20260508054212 15 273 8.0 16.1 0.00 0.00 0.00 37 1013.4
20260508053927 15 265 4.8 14.5 0.00 0.00 0.00 38 1013.4
20260508053200 14 272 3.2 12.9 0.00 0.00 0.00 39 1013.4
20260508052653 15 254 1.6 4.8 0.00 0.00 0.00 39 1013.3
20260508052148 15 281 1.6 4.8 0.00 0.00 0.00 40 1013.3
20260508051641 15 249 1.6 6.4 0.00 0.00 0.00 40 1013.3
20260508051135 15 321 1.6 6.4 0.00 0.00 0.00 40 1013.2
20260508050629 16 326 3.2 12.9 0.00 0.00 0.00 40 1013.2
20260508050123 16 328 4.8 12.9 0.00 0.00 0.00 38 1013.2
20260508045620 16 337 3.2 9.7 0.00 0.00 0.00 37 1013.2
20260508045111 16 290 3.2 8.0 0.00 0.00 0.00 35 1013.3
20260508044829 16 309 4.8 12.9 0.00 0.00 0.00 34 1013.3
20260508044100 16 310 4.8 12.9 0.00 0.00 0.00 33 1013.3
20260508043553 17 334 6.4 17.7 0.00 0.00 0.00 32 1013.2
20260508043047 17 347 6.4 17.7 0.00 0.00 0.00 31 1013.3
20260508042818 17 342 6.4 17.7 0.00 0.00 0.00 29 1013.2
20260508042314 17 289 8.0 19.3 0.00 0.00 0.00 29 1013.2
20260508041530 17 309 9.7 19.3 0.00 0.00 0.00 28 1013.2
20260508041024 17 292 9.7 19.3 0.00 0.00 0.00 27 1013.2
20260508040749 17 242 9.7 20.9 0.00 0.00 0.00 27 1013.0
20260508040013 18 313 9.7 20.9 0.00 0.00 0.00 26 1013.0
20260508035237 18 279 9.7 19.3 0.00 0.00 0.00 26 1012.8
20260508035233 18 312 9.7 25.7 0.00 0.00 0.00 26 1012.8
20260508033947 17 286 8.0 19.3 0.00 0.00 0.00 26 1012.8
20260508033441 17 279 6.4 12.9 0.00 0.00 0.00 27 1012.8
20260508032935 17 271 4.8 11.3 0.00 0.00 0.00 27 1012.8
20260508032430 18 304 4.8 12.9 0.00 0.00 0.00 26 1012.8
20260508031923 18 286 4.8 16.1 0.00 0.00 0.00 26 1012.8
20260508031417 19 293 6.4 16.1 0.00 0.00 0.00 25 1012.7
20260508030912 19 300 8.0 16.1 0.00 0.00 0.00 25 1012.7
20260508030408 19 266 9.7 17.7 0.00 0.00 0.00 24 1012.7
20260508025859 20 303 9.7 19.3 0.00 0.00 0.00 24 1012.6
20260508025630 20 311 9.7 19.3 0.00 0.00 0.00 24 1012.6
20260508024847 20 304 11.3 19.3 0.00 0.00 0.00 24 1012.4
20260508024400 20 287 11.3 20.9 0.00 0.00 0.00 24 1012.3
20260508023329 21 331 11.3 22.5 0.00 0.00 0.00 23 1012.3
20260508022823 21 241 9.7 20.9 0.00 0.00 0.00 24 1012.2
20260508022317 21 272 9.7 22.5 0.00 0.00 0.00 24 1012.2
20260508021811 21 219 11.3 22.5 0.00 0.00 0.00 23 1012.2
20260508021316 22 251 11.3 25.7 0.00 0.00 0.00 24 1012.2
20260508020812 22 321 11.3 25.7 0.00 0.00 0.00 24 1012.2
20260508020311 22 275 11.3 22.5 0.00 0.00 0.00 23 1012.3
20260508015811 22 269 12.9 22.5 0.00 0.00 0.00 24 1012.2
20260508015311 22 292 12.9 27.4 0.00 0.00 0.00 23 1012.3
20260508014812 22 279 12.9 27.4 0.00 0.00 0.00 23 1012.3
20260508014538 22 252 12.9 24.1 0.00 0.00 0.00 24 1012.4
20260508014050 23 269 12.9 27.4 0.00 0.00 0.00 23 1012.4
20260508013311 23 248 14.5 29.0 0.00 0.00 0.00 24 1012.3
20260508012811 23 261 14.5 29.0 0.00 0.00 0.00 22 1012.4
20260508012311 23 255 12.9 22.5 0.00 0.00 0.00 24 1012.3
20260508011811 23 281 12.9 25.7 0.00 0.00 0.00 24 1012.4
20260508011310 23 267 14.5 29.0 0.00 0.00 0.00 23 1012.4
20260508010810 23 336 14.5 29.0 0.00 0.00 0.00 21 1012.3
20260508010309 23 223 14.5 24.1 0.00 0.00 0.00 23 1012.4
20260508005809 23 301 14.5 27.4 0.00 0.00 0.00 21 1012.3
20260508005550 23 300 14.5 33.8 0.00 0.00 0.00 21 1012.3
20260508004819 23 292 16.1 37.0 0.00 0.00 0.00 20 1012.3
20260508004318 24 250 14.5 37.0 0.00 0.00 0.00 20 1012.2
20260508003816 24 269 12.9 29.0 0.00 0.00 0.00 19 1012.2
20260508003344 24 282 12.9 27.4 0.00 0.00 0.00 19 1012.1
20260508003340 24 279 14.5 27.4 0.00 0.00 0.00 19 1012.1
20260508002301 24 254 14.5 32.2 0.00 0.00 0.00 20 1012.0
20260508001815 24 246 16.1 32.2 0.00 0.00 0.00 20 1012.0
20260508001334 25 263 14.5 29.0 0.00 0.00 0.00 19 1011.9
20260508001329 24 234 14.5 29.0 0.00 0.00 0.00 19 1012.0
20260508001042 24 316 16.1 32.2 0.00 0.00 0.00 20 1011.9
20260507235756 24 265 16.1 32.2 0.00 0.00 0.00 19 1011.9
20260507235257 25 326 14.5 35.4 0.00 0.00 0.00 19 1011.9
20260507234834 25 293 14.5 35.4 0.00 0.00 0.00 21 1011.8
20260507234820 25 296 14.5 35.4 0.00 0.00 0.00 19 1011.8
20260507233755 25 288 14.5 35.4 0.00 0.00 0.00 19 1011.8
20260507233311 25 254 14.5 27.4 0.00 0.00 0.00 18 1011.9
20260507232758 25 267 16.1 32.2 0.00 0.00 0.00 19 1011.9
20260507232255 25 303 16.1 32.2 0.00 0.00 0.00 18 1011.9
20260507231754 25 283 17.7 32.2 0.00 0.00 0.00 19 1011.8
20260507231248 25 294 16.1 32.2 0.00 0.00 0.00 19 1011.9
20260507230742 25 236 16.1 30.6 0.00 0.00 0.00 19 1011.9
20260507230236 24 314 17.7 29.0 0.00 0.00 0.00 20 1011.9
20260507225730 25 269 17.7 29.0 0.00 0.00 0.00 19 1012.0
20260507225224 25 284 16.1 29.0 0.00 0.00 0.00 20 1012.2
20260507224718 25 298 16.1 30.6 0.00 0.00 0.00 19 1012.2
20260507224213 25 241 16.1 30.6 0.00 0.00 0.00 19 1012.2
20260507223709 25 276 16.1 32.2 0.00 0.00 0.00 19 1012.3
20260507223200 25 267 16.1 32.2 0.00 0.00 0.00 19 1012.4
20260507222654 25 252 14.5 27.4 0.00 0.00 0.00 20 1012.4
20260507222148 25 338 14.5 25.7 0.00 0.00 0.00 21 1012.6
20260507221642 25 305 12.9 24.1 0.00 0.00 0.00 21 1012.6
20260507221138 25 348 11.3 24.1 0.00 0.00 0.00 22 1012.7
20260507220630 25 289 11.3 24.1 0.00 0.00 0.00 22 1012.6
20260507220125 25 339 12.9 24.1 0.00 0.00 0.00 22 1012.7
20260507215618 25 239 12.9 24.1 0.00 0.00 0.00 21 1012.7
20260507215112 25 345 12.9 25.7 0.00 0.00 0.00 23 1012.7
20260507214609 25 247 12.9 25.7 0.00 0.00 0.00 22 1012.7
20260507214100 25 350 11.3 25.7 0.00 0.00 0.00 22 1012.8
20260507213555 25 288 11.3 25.7 0.00 0.00 0.00 23 1012.8
20260507213048 25 244 9.7 20.9 0.00 0.00 0.00 22 1012.7
20260507212543 25 281 9.7 20.9 0.00 0.00 0.00 25 1012.8
20260507212035 25 350 12.9 25.7 0.00 0.00 0.00 24 1012.8
20260507211531 25 284 11.3 24.1 0.00 0.00 0.00 25 1012.8
20260507211027 25 355 9.7 20.9 0.00 0.00 0.00 25 1012.8
20260507210522 25 286 9.7 17.7 0.00 0.00 0.00 26 1012.9
20260507210247 25 340 9.7 22.5 0.00 0.00 0.00 25 1013.0
20260507205509 25 313 11.3 22.5 0.00 0.00 0.00 22 1013.0
20260507205232 25 290 9.7 22.5 0.00 0.00 0.00 21 1013.1
20260507204454 25 325 9.7 22.5 0.00 0.00 0.00 21 1013.2
20260507204209 24 324 11.3 27.4 0.00 0.00 0.00 21 1013.2
20260507203442 24 351 11.3 27.4 0.00 0.00 0.00 20 1013.2
20260507203227 24 337 9.7 22.5 0.00 0.00 0.00 21 1013.3
20260507202436 23 275 8.0 17.7 0.00 0.00 0.00 22 1013.3
20260507201937 23 355 8.0 20.9 0.00 0.00 0.00 20 1013.3
20260507201436 23 333 6.4 20.9 0.00 0.00 0.00 21 1013.4
20260507200934 23 274 4.8 17.7 0.00 0.00 0.00 24 1013.5
20260507200436 23 32 4.8 14.5 0.00 0.00 0.00 25 1013.5
20260507195934 23 269 6.4 16.1 0.00 0.00 0.00 24 1013.5
20260507195717 23 18 4.8 16.1 0.00 0.00 0.00 26 1013.6
20260507194941 23 13 3.2 16.1 0.00 0.00 0.00 28 1013.6
20260507194440 22 0 3.2 9.7 0.00 0.00 0.00 29 1013.6
20260507193938 22 69 4.8 12.9 0.00 0.00 0.00 27 1013.8
20260507193441 22 203 6.4 12.9 0.00 0.00 0.00 27 1013.8
20260507192940 22 200 6.4 14.5 0.00 0.00 0.00 28 1013.8
20260507192501 22 271 6.4 14.5 0.00 0.00 0.00 29 1013.9
20260507191713 22 260 8.0 17.7 0.00 0.00 0.00 29 1014.0
20260507190931 22 294 6.4 16.1 0.00 0.00 0.00 30 1014.0
20260507190458 22 267 6.4 16.1 0.00 0.00 0.00 30 1014.2
20260507190454 22 260 6.4 14.5 0.00 0.00 0.00 29 1014.1
20260507185430 21 282 6.4 16.1 0.00 0.00 0.00 30 1014.2
20260507184930 21 276 3.2 12.9 0.00 0.00 0.00 33 1014.2
20260507184430 21 346 4.8 9.7 0.00 0.00 0.00 35 1014.3
20260507183929 21 0 6.4 14.5 0.00 0.00 0.00 35 1014.4
20260507183431 20 315 3.2 14.5 0.00 0.00 0.00 36 1014.4
20260507182927 20 355 3.2 9.7 0.00 0.00 0.00 37 1014.5
20260507182424 20 317 3.2 9.7 0.00 0.00 0.00 36 1014.5
20260507181924 20 345 3.2 6.4 0.00 0.00 0.00 37 1014.5
20260507181712 20 67 3.2 9.7 0.00 0.00 0.00 37 1014.5
20260507180922 20 343 3.2 9.7 0.00 0.00 0.00 38 1014.6
20260507180711 20 344 3.2 9.7 0.00 0.00 0.00 40 1014.6
20260507175920 20 119 4.8 9.7 0.00 0.00 0.00 39 1014.7
20260507175420 20 118 3.2 12.9 0.00 0.00 0.00 40 1014.7
20260507174919 20 148 3.2 12.9 0.00 0.00 0.00 40 1014.8
20260507174427 19 113 4.8 12.9 0.00 0.00 0.00 41 1014.8
20260507174145 19 135 4.8 12.9 0.00 0.00 0.00 41 1015.0
20260507173421 19 355 3.2 9.7 0.00 0.00 0.00 43 1015.0
20260507172918 18 0 1.6 8.0 0.00 0.00 0.00 43 1015.0
20260507172418 18 306 3.2 8.0 0.00 0.00 0.00 44 1015.0
20260507171917 18 13 3.2 8.0 0.00 0.00 0.00 42 1015.1
20260507171417 18 121 4.8 8.0 0.00 0.00 0.00 43 1015.1
20260507170911 18 263 3.2 9.7 0.00 0.00 0.00 44 1015.1
20260507170649 18 232 1.6 9.7 0.00 0.00 0.00 45 1015.1
20260507165859 18 221 3.2 9.7 0.00 0.00 0.00 47 1015.1
20260507165354 17 221 3.2 9.7 0.00 0.00 0.00 47 1015.1
20260507164848 17 255 1.6 6.4 0.00 0.00 0.00 47 1015.2
20260507164341 17 202 3.2 12.9 0.00 0.00 0.00 48 1015.1
20260507163837 17 223 3.2 12.9 0.00 0.00 0.00 48 1015.2
20260507163330 17 255 3.2 8.0 0.00 0.00 0.00 49 1015.1
20260507162823 17 239 3.2 9.7 0.00 0.00 0.00 49 1015.1
20260507162317 16 53 4.8 9.7 0.00 0.00 0.00 51 1015.1
20260507161811 16 321 3.2 9.7 0.00 0.00 0.00 51 1015.1
20260507161308 16 316 1.6 8.0 0.00 0.00 0.00 51 1015.1
20260507160803 16 348 4.8 12.9 0.00 0.00 0.00 52 1015.2
20260507160254 16 277 4.8 12.9 0.00 0.00 0.00 52 1015.2
20260507155747 16 355 3.2 12.9 0.00 0.00 0.00 54 1015.3
20260507155241 16 17 3.2 12.9 0.00 0.00 0.00 54 1015.3
20260507154735 16 32 3.2 14.5 0.00 0.00 0.00 54 1015.3
20260507154232 15 346 3.2 14.5 0.00 0.00 0.00 56 1015.3
20260507153723 15 325 1.6 8.0 0.00 0.00 0.00 57 1015.3
20260507153218 15 0 3.2 8.0 0.00 0.00 0.00 57 1015.3
20260507152951 15 9 1.6 8.0 0.00 0.00 0.00 57 1015.3
20260507152434 15 124 1.6 4.8 0.00 0.00 0.00 58 1015.3
20260507151700 15 124 1.6 8.0 0.00 0.00 0.00 59 1015.3
20260507151155 15 124 3.2 9.7 0.00 0.00 0.00 60 1015.3
20260507150935 14 277 1.6 9.7 0.00 0.00 0.00 60 1015.4
20260507150141 14 327 3.2 6.4 0.00 0.00 0.00 60 1015.3
20260507145916 14 346 3.2 6.4 0.00 0.00 0.00 60 1015.3
20260507145129 13 346 1.6 12.9 0.00 0.00 0.00 62 1015.4
20260507144623 13 300 3.2 12.9 0.00 0.00 0.00 62 1015.4
20260507144122 13 306 4.8 16.1 0.00 0.00 0.00 63 1015.4
20260507143621 13 335 6.4 16.1 0.00 0.00 0.00 64 1015.4
20260507143121 12 292 6.4 14.5 0.00 0.00 0.00 66 1015.3
20260507142622 12 316 4.8 14.5 0.00 0.00 0.00 68 1015.3
20260507142414 11 298 1.6 8.0 0.00 0.00 0.00 70 1015.3
20260507141902 11 194 1.6 8.0 0.00 0.00 0.00 67 1015.3
20260507141124 11 65 1.6 4.8 0.00 0.00 0.00 68 1015.2
20260507140621 11 63 0.0 3.2 0.00 0.00 0.00 69 1015.2
20260507140128 11 63 0.0 1.6 0.00 0.00 0.00 70 1015.2
20260507135653 11 63 0.0 0.0 0.00 0.00 0.00 69 1015.1
20260507134626 10 61 0.0 3.2 0.00 0.00 0.00 68 1015.0
20260507134125 11 61 0.0 3.2 0.00 0.00 0.00 68 1014.8
20260507133625 11 61 0.0 3.2 0.00 0.00 0.00 67 1014.8
20260507133123 11 58 0.0 0.0 0.00 0.00 0.00 65 1014.8
20260507132618 11 58 0.0 0.0 0.00 0.00 0.00 64 1014.7
20260507132355 12 58 0.0 3.2 0.00 0.00 0.00 63 1014.7
20260507131622 12 58 1.6 4.8 0.00 0.00 0.00 61 1014.7
20260507131118 12 57 3.2 8.0 0.00 0.00 0.00 60 1014.7
20260507130620 13 53 4.8 12.9 0.00 0.00 0.00 58 1014.7
20260507130120 13 326 6.4 16.1 0.00 0.00 0.00 58 1014.6
20260507125617 13 302 6.4 16.1 0.00 0.00 0.00 57 1014.6
20260507125123 13 310 8.0 20.9 0.00 0.00 0.00 56 1014.5
20260507124621 13 319 9.7 20.9 0.00 0.00 0.00 56 1014.5
20260507124119 13 336 9.7 19.3 0.00 0.00 0.00 56 1014.3
20260507123615 13 293 11.3 22.5 0.00 0.00 0.00 56 1014.3
20260507123116 13 284 11.3 22.5 0.00 0.00 0.00 55 1014.3
20260507122625 14 274 11.3 20.9 0.00 0.00 0.00 55 1014.3
20260507122614 13 259 11.3 22.5 0.00 0.00 0.00 55 1014.3
20260507121614 14 294 11.3 20.9 0.00 0.00 0.00 55 1014.4
20260507121115 14 318 11.3 24.1 0.00 0.00 0.00 54 1014.3
20260507120858 14 284 11.3 24.1 0.00 0.00 0.00 54 1014.4
20260507120122 14 304 11.3 20.9 0.00 0.00 0.00 55 1014.4
20260507115851 14 281 11.3 20.9 0.00 0.00 0.00 54 1014.4
20260507115116 13 278 9.7 20.9 0.00 0.00 0.00 56 1014.4
20260507114614 14 331 11.3 19.3 0.00 0.00 0.00 57 1014.5
20260507114341 14 275 11.3 20.9 0.00 0.00 0.00 58 1014.5
20260507113842 14 288 11.3 20.9 0.00 0.00 0.00 57 1014.6
20260507113100 14 310 9.7 20.9 0.00 0.00 0.00 56 1014.6
20260507112553 14 295 9.7 19.3 0.00 0.00 0.00 56 1014.5
20260507112046 14 283 9.7 19.3 0.00 0.00 0.00 54 1014.7
20260507111816 14 286 9.7 20.9 0.00 0.00 0.00 56 1014.7